Find Local Weather

World > North America > United States > Wisconsin

Kimberly, Wisconsin Regional Weather

Lat: 44.28N, Lon: 88.31W
Wx Zone: WIZ038
Warning FLW WEATHER ALERT - (More Info. Click Here) Warning
Feedback
Expires:201812102300;;601160
ASUS43 KGRB 102211
RWRGRB

NORTH-CENTRAL AND NORTHEAST WISCONSIN REGIONAL WEATHER ROUNDUP
NATIONAL WEATHER SERVICE GREEN BAY WI
400 PM CST MON DEC 10 2018


WIZ038-039-048-051-102300-
FOX VALLEY
  
CITY           SKY/WX    TMP DP  RH WIND       PRES   REMARKS
NWS GREEN BAY  FAIR      26  19  74 SW8       30.05F                  
APPLETON       PTCLDY    25  16  68 SW7       30.03F                  
OSHKOSH        FAIR      30  20  66 SW5       30.06F                  
FOND DU LAC    FAIR      31  21  66 SW5       30.07F                  
$$


SKY/WX - Weather  TMP - Temperature  DP - Dew Point  RH - Relative Humidity
WIND - Wind Direction/Speed PRES - Barometric Pressure